15min,AgWx,evansfrm,411,11NOV2017:00:00:00,31.0,12.89,31.8,31.6,32.1,33.0,31.5,100,100,100,0.599,32.1,33.0,31.5,2.981,1.6,105,64,3.7,-0.00009,-0.00012,41.0,42.4,12,0,0,34.5,6.03,0.00,0.00
15min,AgWx,evansfrm,411,11NOV2017:00:15:00,31.2,12.85,32.6,32.5,31.9,32.5,31.4,100,100,100,0.622,31.9,32.5,31.4,1.666,3.3,122,71,5.5,-0.00007,-0.00009,40.9,42.1,12,0,0,34.7,6.03,0.00,0.00
15min,AgWx,evansfrm,411,11NOV2017:00:30:00,31.5,12.88,31.9,31.7,31.9,32.7,31.6,100,100,100,0.604,31.9,32.7,31.6,0.833,2.3,326,42,5.4,-0.00008,-0.00010,40.8,42.4,12,0,0,34.3,6.03,0.00,0.00
15min,AgWx,evansfrm,411,11NOV2017:00:45:00,31.5,12.88,31.5,31.3,31.8,32.3,31.3,100,100,100,0.594,31.8,32.3,31.3,3.047,2.1,20,57,6.2,-0.00008,-0.00011,40.7,42.1,12,0,0,34.3,6.03,0.00,0.00
15min,AgWx,evansfrm,411,11NOV2017:01:00:00,31.4,12.86,30.6,30.4,31.2,31.8,30.3,100,100,100,0.572,31.2,31.8,30.3,0,2.3,183,71,6.9,-0.00008,-0.00010,40.6,42.1,12,0,0,34.1,6.04,0.01,0.00
15min,AgWx,evansfrm,411,11NOV2017:01:15:00,31.0,12.86,30.0,29.9,30.5,31.1,29.7,100,100,100,0.561,30.5,31.1,29.7,2.105,2.4,97,56,6.4,-0.00008,-0.00010,40.5,41.9,12,0,0,34.5,6.04,0.00,0.00
15min,AgWx,evansfrm,411,11NOV2017:01:30:00,30.8,12.82,30.6,30.7,30.1,30.7,29.5,100,100,100,0.579,30.1,30.7,29.5,2.389,4.3,212,62,8.4,-0.00006,-0.00007,40.4,41.9,12,0,0,34.5,6.04,0.00,0.00
15min,AgWx,evansfrm,411,11NOV2017:01:45:00,30.6,12.85,29.9,29.9,30.3,31.0,29.6,100,100,100,0.561,30.3,31.0,29.6,1.907,2.3,101,45,3.8,-0.00008,-0.00010,40.3,41.9,12,0,0,34.9,6.04,0.00,0.00
15min,AgWx,evansfrm,411,11NOV2017:02:00:00,30.7,12.86,31.3,31.2,31.0,31.7,29.7,100,100,100,0.592,31.0,31.7,29.7,2.258,2.6,61,46,6.2,-0.00008,-0.00010,40.3,41.7,12,0,0,35.1,6.03,0.00,0.00
15min,AgWx,evansfrm,411,11NOV2017:02:15:00,30.8,12.86,31.4,31.3,31.1,31.4,30.7,100,100,100,0.594,31.1,31.4,30.7,0,1.4,328,40,4.6,-0.00009,-0.00013,40.1,41.9,12,0,0,35.0,6.03,0.00,0.00
15min,AgWx,evansfrm,411,11NOV2017:02:30:00,31.0,12.86,32.1,32.0,31.5,32.1,30.9,100,100,100,0.610,31.5,32.1,30.9,1.907,2.8,104,59,5.2,-0.00008,-0.00009,40.0,41.5,12,0,0,34.8,6.03,0.00,0.00
15min,AgWx,evansfrm,411,11NOV2017:02:45:00,31.3,12.84,31.6,31.4,31.6,32.0,31.4,100,100,100,0.597,31.6,32.0,31.4,5.217,1.3,208,33,5.2,-0.00010,-0.00013,40.0,41.5,12,0,0,34.6,6.03,0.00,0.00
15min,AgWx,evansfrm,411,11NOV2017:03:00:00,31.5,12.86,31.8,31.6,31.5,31.7,31.3,100,100,100,0.601,31.5,31.7,31.3,2.499,3.3,353,85,8.0,-0.00007,-0.00009,39.8,41.5,12,0,0,34.5,6.03,0.00,0.00
15min,AgWx,evansfrm,411,11NOV2017:03:15:00,31.7,12.86,32.5,32.5,31.9,32.5,31.6,100,100,100,0.622,31.9,32.5,31.5,2.85,3.7,356,64,7.5,-0.00007,-0.00008,39.9,41.5,12,0,0,35.0,6.03,0.00,0.00
15min,AgWx,evansfrm,411,11NOV2017:03:30:00,32.1,12.86,35.4,34.6,33.5,34.6,32.5,100,100,100,0.678,33.5,34.6,32.5,8.22,7.2,49,18,11.9,-0.00005,-0.00005,39.8,41.5,12,0,0,35.5,6.03,0.00,0.00
15min,AgWx,evansfrm,411,11NOV2017:03:45:00,32.8,12.88,38.2,37.7,36.3,38.0,34.6,95,100,86,0.654,34.8,35.6,33.7,4.297,3.9,24,28,8.8,-0.00005,-0.00006,39.6,41.5,12,0,0,37.4,6.03,0.00,0.00
15min,AgWx,evansfrm,411,11NOV2017:04:00:00,33.7,12.88,40.8,40.3,38.5,40.3,37.5,83,85,78,0.661,33.8,34.4,33.1,7.673,5.2,36,27,12.6,0.00002,0.00003,39.6,41.4,12,0,0,38.9,6.03,0.00,0.00
15min,AgWx,evansfrm,411,11NOV2017:04:15:00,34.6,12.87,39.9,39.8,39.7,40.4,39.4,78,79,77,0.648,33.4,33.9,33.1,2.718,2.5,47,51,8.2,-0.00002,-0.00001,39.6,41.4,12,0,0,39.3,6.03,0.00,0.00
15min,AgWx,evansfrm,411,11NOV2017:04:30:00,35.0,12.87,37.5,37.3,38.2,39.9,37.3,82,85,77,0.639,33.1,34.2,32.3,0.636,1.8,248,64,3.5,-0.00005,-0.00007,39.5,41.2,12,0,0,37.7,6.03,0.00,0.00
15min,AgWx,evansfrm,411,11NOV2017:04:45:00,35.1,12.87,35.2,35.1,36.1,37.3,35.1,89,93,85,0.642,33.1,33.4,32.9,2.894,4.0,231,17,8.6,-0.00002,-0.00002,39.5,41.0,12,0,0,36.4,6.03,0.00,0.00
15min,AgWx,evansfrm,411,11NOV2017:05:00:00,35.2,12.87,35.5,35.4,35.1,35.4,34.9,94,95,93,0.666,33.6,34.2,33.3,2.148,3.7,166,27,6.2,-0.00005,-0.00006,39.5,41.2,12,0,0,36.2,6.03,0.00,0.00
15min,AgWx,evansfrm,411,11NOV2017:05:15:00,35.3,12.84,35.7,35.6,35.5,35.7,35.3,95,95,95,0.668,34.1,34.3,33.9,4.911,1.4,199,72,4.9,-0.00009,-0.00013,39.4,41.0,12,0,58,39.3,6.03,0.01,0.00
15min,AgWx,evansfrm,411,11NOV2017:05:30:00,35.5,12.81,37.5,37.3,36.3,37.3,35.6,95,96,93,0.703,35.0,35.6,34.3,7.475,4.1,85,36,7.7,-0.00005,-0.00006,39.4,41.2,12,0,100,40.0,6.03,0.00,0.00
15min,AgWx,evansfrm,411,11NOV2017:05:45:00,35.9,12.84,38.3,38.2,38.1,39.0,37.3,91,93,88,0.712,35.6,36.5,34.8,4.275,5.2,119,34,8.2,-0.00002,-0.00001,39.3,41.2,12,0,100,40.3,6.04,0.01,0.01
15min,AgWx,evansfrm,411,11NOV2017:06:00:00,36.2,12.87,39.1,38.9,38.5,38.9,38.1,93,95,91,0.758,36.5,37.4,36.0,8.94,5.4,108,23,9.1,-0.00003,-0.00003,39.5,40.8,12,0,63,40.7,6.04,0.00,0.00
15min,AgWx,evansfrm,411,11NOV2017:06:15:00,36.5,12.87,39.5,39.3,39.5,39.7,39.0,90,94,88,0.720,36.9,37.6,36.1,5.634,5.9,97,16,8.7,-0.00001,-0.00000,39.3,41.2,12,0,0,39.4,6.04,0.00,0.00
15min,AgWx,evansfrm,411,11NOV2017:06:30:00,36.5,12.84,36.6,36.4,38.5,39.8,36.4,88,91,86,0.659,35.3,36.4,33.7,2.061,3.5,139,41,7.2,-0.00003,-0.00003,39.3,40.6,12,0,0,37.4,6.05,0.01,0.00
15min,AgWx,evansfrm,411,11NOV2017:06:45:00,36.0,12.88,36.2,37.2,36.3,37.2,35.3,96,99,91,0.744,35.1,37.0,33.9,1.14,2.0,267,80,3.1,-0.00008,-0.00011,39.4,40.8,12,0,0,34.9,6.05,0.00,0.00
15min,AgWx,evansfrm,411,11NOV2017:07:00:00,35.6,12.87,35.2,35.2,36.0,37.3,35.1,98,100,97,0.690,35.5,37.0,34.7,3.793,2.6,169,39,5.0,-0.00008,-0.00010,39.4,40.6,12,0,0,34.8,6.05,0.00,0.00
15min,AgWx,evansfrm,411,11NOV2017:07:15:00,35.1,12.8,35.1,35.1,35.6,36.0,34.9,100,100,100,0.691,35.6,36.0,34.9,1.644,3.1,180,43,5.3,-0.00008,-0.00009,39.4,40.8,12,3,0,34.5,6.05,0.01,0.00
15min,AgWx,evansfrm,411,11NOV2017:07:30:00,34.7,12.88,34.1,34.2,34.7,35.3,34.1,100,100,100,0.667,34.7,35.3,34.1,1.008,0.8,71,0.2,2.4,-0.00035,-0.00037,39.4,40.6,12,15,0,35.1,6.05,0.00,0.00
15min,AgWx,evansfrm,411,11NOV2017:07:45:00,34.5,12.91,34.7,34.9,34.5,34.9,34.2,100,100,100,0.686,34.5,34.9,34.2,0,0.8,23,24,2.7,-0.00027,-0.00029,39.3,40.6,12,33,0,36.1,6.05,0.00,0.00
15min,AgWx,evansfrm,411,11NOV2017:08:00:00,34.6,12.95,35.4,35.5,34.8,35.5,34.1,100,100,100,0.702,34.8,35.5,34.1,1.118,1.9,12,59,4.2,-0.00012,-0.00012,39.3,40.6,12,51,0,36.9,6.04,0.00,0.00
15min,AgWx,evansfrm,411,11NOV2017:08:15:00,34.9,12.99,36.1,36.0,35.5,36.0,34.9,100,100,100,0.716,35.5,36.0,34.9,1.995,2.5,306,20,5.2,0.00004,0.00004,39.2,40.5,12,72,0,39.0,6.04,0.00,0.00
15min,AgWx,evansfrm,411,11NOV2017:08:30:00,35.5,12.94,37.3,37.0,36.5,37.1,35.9,100,100,100,0.746,36.5,37.1,35.9,4.165,3.7,357,16,6.8,0.00015,0.00015,39.2,40.6,12,54,0,40.5,6.04,0.00,0.00
15min,AgWx,evansfrm,411,11NOV2017:08:45:00,36.1,12.94,37.7,37.6,37.3,37.6,37.0,100,100,100,0.762,37.3,37.6,37.0,2.126,3.5,351,18,5.4,0.00019,0.00020,39.2,40.6,12,49,0,40.6,6.04,0.00,0.00
15min,AgWx,evansfrm,411,11NOV2017:09:00:00,36.7,12.94,38.0,37.9,37.7,37.9,37.4,100,100,100,0.772,37.7,37.9,37.4,0,1.7,333,20,4.5,0.00023,0.00024,39.2,41.0,12,50,0,41.2,6.04,0.00,0.00
15min,AgWx,evansfrm,411,11NOV2017:09:15:00,37.4,13,39.2,38.9,38.5,39.0,37.8,100,100,100,0.802,38.5,39.0,37.8,1.359,0.4,331,18,2.5,0.00036,0.00039,39.2,41.2,12,85,0,44.7,6.03,0.00,0.00
15min,AgWx,evansfrm,411,11NOV2017:09:30:00,38.4,13.09,39.4,39.2,39.0,39.2,38.7,100,100,100,0.811,39.0,39.2,38.7,1.381,2.3,128,44,3.7,0.00047,0.00049,39.2,40.6,12,126,0,46.3,6.03,0.00,0.00
15min,AgWx,evansfrm,411,11NOV2017:09:45:00,39.4,13.13,40.1,39.7,39.5,39.9,39.2,100,100,100,0.829,39.5,39.9,39.2,2.959,1.9,170,11,3.0,0.00052,0.00056,39.2,40.8,12,132,0,46.9,6.03,0.00,0.00
15min,AgWx,evansfrm,411,11NOV2017:10:00:00,40.5,13.23,40.7,40.6,40.2,40.7,39.9,100,100,99,0.856,40.2,40.7,39.9,3.639,3.2,191,11,5.0,0.00057,0.00060,39.3,40.5,12,148,0,48.1,6.03,0.00,0.00
15min,AgWx,evansfrm,411,11NOV2017:10:15:00,41.6,13.88,42.3,41.8,41.1,41.9,40.5,99,100,97,0.872,40.8,41.5,40.3,3.508,3.4,195,12,6.3,0.00085,0.00091,39.4,40.6,12,235,0,55.6,6.02,0.00,0.00
15min,AgWx,evansfrm,411,11NOV2017:10:30:00,42.7,13.67,41.9,41.8,41.4,41.8,41.2,94,97,93,0.836,39.9,41.1,39.3,3.968,3.7,183,24,5.6,0.00065,0.00072,39.6,40.6,12,152,0,52.0,6.05,0.03,0.00
15min,AgWx,evansfrm,411,11NOV2017:10:45:00,43.8,14.71,44.0,43.5,42.5,43.5,41.4,87,93,83,0.799,39.0,39.8,38.3,0,1.7,152,26,4.5,0.00109,0.00120,39.6,40.5,12,259,0,62.9,6.03,0.00,0.00
15min,AgWx,evansfrm,411,11NOV2017:11:00:00,47.5,14.65,46.8,45.4,45.5,46.3,43.7,79,84,77,0.798,39.5,40.7,38.6,2.28,0.9,218,33,5.8,0.00203,0.00219,39.8,40.5,12,469,0,94.2,6.03,0.00,0.00
15min,AgWx,evansfrm,411,11NOV2017:11:15:00,51.5,14.6,48.1,46.7,45.9,46.8,45.0,75,80,72,0.784,38.3,40.6,36.8,2.938,1.5,173,33,4.3,0.00214,0.00234,40.0,40.8,12,491,0,91.3,6.03,0.00,0.00
15min,AgWx,evansfrm,411,11NOV2017:11:30:00,55.0,14.16,46.9,45.5,46.8,48.2,45.5,71,72,69,0.735,38.0,39.6,36.7,2.433,1.4,163,24,5.0,0.00200,0.00220,40.2,40.6,12,443,0,92.2,6.06,0.03,0.00
15min,AgWx,evansfrm,411,11NOV2017:11:45:00,56.9,14.5,49.5,46.9,46.5,47.8,45.3,71,72,68,0.747,37.6,39.1,36.4,0,1.5,179,81,4.4,0.00222,0.00243,40.3,41.0,12,504,0,93.8,6.04,0.00,0.00
15min,AgWx,evansfrm,411,11NOV2017:12:00:00,58.6,14.46,47.7,47.9,47.2,48.1,46.3,64,69,61,0.725,35.9,37.8,34.4,3.486,2.8,88,31,5.4,0.00234,0.00264,40.6,40.6,12,518,0,95.0,6.05,0.01,0.00
15min,AgWx,evansfrm,411,11NOV2017:12:15:00,60.0,14.43,49.8,48.8,48.0,48.8,47.3,57,63,50,0.610,33.5,36.1,30.6,1.973,2.8,8.9,77,5.1,0.00243,0.00278,41.0,40.6,12,525,0,95.1,6.05,0.00,0.00
15min,AgWx,evansfrm,411,11NOV2017:12:30:00,61.2,14.41,50.6,49.1,48.7,49.6,47.8,50,55,46,0.596,30.7,33.9,28.9,1.228,3.4,321,28,6.4,0.00247,0.00290,41.2,40.6,12,517,0,89.8,6.05,0.00,0.00
15min,AgWx,evansfrm,411,11NOV2017:12:45:00,62.3,14.37,48.9,47.8,48.8,49.6,47.8,48,50,45,0.543,29.7,31.4,28.4,1.754,3.1,290,40,6.2,0.00249,0.00290,41.7,41.0,12,516,0,92.7,6.05,0.01,0.00
15min,AgWx,evansfrm,411,11NOV2017:13:00:00,62.3,14.38,49.9,49.4,48.7,49.5,47.5,50,54,47,0.616,31.1,33.4,29.0,3.288,2.1,334,45,5.3,0.00208,0.00239,42.0,40.8,12,436,0,88.2,6.05,0.00,0.00
15min,AgWx,evansfrm,411,11NOV2017:13:15:00,63.0,14.37,50.2,50.0,49.8,50.6,49.2,47,52,45,0.562,30.5,32.7,29.0,1.973,2.4,51,44,6.5,0.00242,0.00280,42.4,41.0,12,504,0,98.4,6.06,0.00,0.00
15min,AgWx,evansfrm,411,11NOV2017:13:30:00,63.3,13.85,50.0,48.9,49.6,50.5,48.9,47,50,44,0.557,30.2,32.4,28.5,2.609,3.4,18,54,6.8,0.00222,0.00266,42.7,41.0,12,449,0,91.3,6.06,0.00,0.00
15min,AgWx,evansfrm,411,11NOV2017:13:45:00,61.9,14.38,49.4,49.4,47.9,49.4,47.2,47,50,44,0.539,28.9,30.2,28.0,4.319,3.0,268,49,5.7,0.00115,0.00148,43.2,41.4,12,179,0,60.3,6.05,0.00,0.00
15min,AgWx,evansfrm,411,11NOV2017:14:00:00,61.3,14.39,51.8,50.4,50.5,51.4,49.5,44,46,42,0.553,29.3,31.3,28.1,2.389,2.1,293,75,5.6,0.00216,0.00250,43.6,41.4,12,452,0,91.7,6.04,0.00,0.00
15min,AgWx,evansfrm,411,11NOV2017:14:15:00,61.0,14.38,50.5,49.6,49.5,51.1,48.8,45,48,42,0.550,29.1,31.6,28.0,1.008,2.6,312,77,5.1,0.00141,0.00174,44.0,41.4,12,257,0,72.5,6.05,0.01,0.00
15min,AgWx,evansfrm,411,11NOV2017:14:30:00,61.0,14.33,51.9,51.0,50.4,51.1,49.7,44,47,42,0.541,29.4,31.1,28.2,0,2.8,277,46,5.9,0.00201,0.00240,44.3,41.5,12,419,0,86.1,6.04,0.00,0.00
15min,AgWx,evansfrm,411,11NOV2017:14:45:00,61.2,14.34,50.2,49.1,50.3,51.9,49.0,45,49,42,0.559,29.9,31.4,28.7,4.012,3.0,296,58,8.4,0.00131,0.00166,44.6,41.9,12,235,0,74.7,6.05,0.01,0.00
15min,AgWx,evansfrm,411,11NOV2017:15:00:00,60.0,14.41,49.2,49.1,49.4,50.3,48.8,46,50,43,0.556,29.4,31.2,28.4,4.143,3.6,355,29,6.5,0.00115,0.00153,44.8,42.1,12,189,0,64.2,6.05,0.00,0.00
15min,AgWx,evansfrm,411,11NOV2017:15:15:00,58.6,14.18,49.1,48.6,49.0,50.0,48.3,48,50,45,0.563,30.0,31.7,28.7,1.907,3.0,316,30,7.0,0.00089,0.00120,45.0,42.3,12,131,0,60.4,6.05,0.00,0.00
15min,AgWx,evansfrm,411,11NOV2017:15:30:00,57.3,14.44,50.1,49.6,49.4,49.8,48.6,46,50,44,0.546,29.4,30.7,28.7,3.814,2.6,328,26,5.1,0.00093,0.00122,45.3,42.3,12,197,0,66.6,6.05,0.00,0.00
15min,AgWx,evansfrm,411,11NOV2017:15:45:00,56.8,14.43,50.1,49.8,49.7,50.1,49.5,46,47,44,0.565,29.5,30.6,28.8,3.003,2.3,338,29,5.0,0.00074,0.00099,45.5,42.3,12,167,0,66.6,6.05,0.00,0.00
15min,AgWx,evansfrm,411,11NOV2017:16:00:00,56.3,14.43,50.4,49.7,49.5,49.8,49.1,47,49,46,0.567,30.2,31.3,29.1,2.872,3.1,321,17,5.2,0.00065,0.00096,45.5,42.8,12,154,0,63.3,6.05,0.00,0.00
15min,AgWx,evansfrm,411,11NOV2017:16:15:00,56.0,14.42,50.0,49.2,49.5,49.7,49.2,47,48,45,0.568,30.1,30.8,29.1,1.973,2.8,330,17,5.1,0.00052,0.00080,45.7,42.8,12,141,0,63.6,6.05,0.00,0.00
15min,AgWx,evansfrm,411,11NOV2017:16:30:00,55.4,14.29,50.0,48.9,49.1,49.4,48.7,49,51,48,0.593,30.9,32.0,30.1,1.973,2.0,320,18,4.5,0.00018,0.00037,45.8,43.0,12,97,0,58.9,6.05,0.00,0.00
15min,AgWx,evansfrm,411,11NOV2017:16:45:00,54.4,13.57,48.2,47.2,48.3,48.9,47.2,51,52,49,0.564,30.7,31.6,29.9,0.614,1.1,317,14,2.8,-0.00022,-0.00014,45.8,43.2,12,45,0,51.3,6.06,0.00,0.00
15min,AgWx,evansfrm,411,11NOV2017:17:00:00,52.7,13.31,45.6,45.7,46.5,47.2,45.7,53,55,51,0.576,30.2,30.8,29.8,1.052,0.9,348,11,1.8,-0.00017,-0.00011,45.8,43.0,12,14,0,42.6,6.05,0.00,0.00
15min,AgWx,evansfrm,411,11NOV2017:17:15:00,50.6,13.2,40.4,40.3,43.2,45.7,40.3,59,65,55,0.548,29.8,30.7,29.1,3.529,2.2,58,36,3.6,0.00006,0.00011,45.9,43.3,12,6,0,40.1,6.05,0.00,0.00
15min,AgWx,evansfrm,411,11NOV2017:17:30:00,48.3,13.18,40.5,40.4,41.5,42.5,40.1,62,66,59,0.542,29.3,30.5,28.5,1.556,2.8,104,33,4.5,0.00008,0.00012,45.8,43.5,12,2,0,39.4,6.04,0.00,0.00
15min,AgWx,evansfrm,411,11NOV2017:17:45:00,46.1,13.15,40.5,40.6,41.2,41.9,40.4,64,65,63,0.556,29.9,30.2,29.1,4.362,2.2,184,18,4.4,0.00003,0.00006,45.9,43.7,12,0,0,38.3,6.04,0.00,0.00
15min,AgWx,evansfrm,411,11NOV2017:18:00:00,44.1,13.13,36.5,36.4,38.7,40.7,36.1,68,71,65,0.520,29.0,30.7,27.5,0.789,2.9,133,32,4.3,0.00005,0.00008,45.8,43.7,12,0,0,37.8,6.05,0.01,0.00
15min,AgWx,evansfrm,411,11NOV2017:18:15:00,42.2,13.12,35.5,35.7,36.0,37.0,35.3,74,76,71,0.535,28.4,29.4,27.4,2.806,2.1,132,14,4.1,-0.00000,0.00000,45.7,43.7,12,0,0,35.5,6.05,0.00,0.00
15min,AgWx,evansfrm,411,11NOV2017:18:30:00,40.4,13.11,35.0,35.0,36.1,37.1,35.0,76,80,73,0.508,29.2,30.9,27.5,2.126,2.6,140,4.9,3.4,0.00001,0.00002,45.5,43.9,12,0,0,35.8,6.05,0.00,0.00
15min,AgWx,evansfrm,411,11NOV2017:18:45:00,38.9,13.09,36.0,36.6,34.7,36.6,33.7,76,78,74,0.556,27.8,29.7,26.5,0,0.5,118,10,2.3,-0.00008,-0.00011,45.4,43.9,12,0,0,35.2,6.05,0.00,0.00
15min,AgWx,evansfrm,411,11NOV2017:19:00:00,37.8,13.08,35.6,35.7,36.3,37.5,35.3,72,75,68,0.529,28.0,29.6,26.8,0,0.8,199,26,3.4,-0.00006,-0.00008,45.2,44.1,12,0,0,34.6,6.05,0.00,0.00
15min,AgWx,evansfrm,411,11NOV2017:19:15:00,36.9,13.06,32.9,33.1,34.7,36.7,32.7,75,81,71,0.519,27.6,29.0,25.5,1.535,1.0,152,21,4.7,-0.00006,-0.00007,45.0,43.9,12,0,0,34.6,6.05,0.00,0.00
15min,AgWx,evansfrm,411,11NOV2017:19:30:00,36.1,13.06,35.1,35.4,35.4,37.7,32.7,79,85,73,0.539,29.5,31.7,27.5,1.666,2.4,125,34,3.3,-0.00001,-0.00000,44.8,44.1,12,0,0,35.1,6.05,0.00,0.00
15min,AgWx,evansfrm,411,11NOV2017:19:45:00,35.3,13.05,32.9,32.9,34.0,36.2,32.4,77,80,74,0.505,27.6,29.5,26.6,1.622,0.7,68,12,2.5,-0.00007,-0.00010,44.7,43.9,12,0,0,34.5,6.06,0.01,0.00
15min,AgWx,evansfrm,411,11NOV2017:20:00:00,34.6,13.03,31.6,31.4,33.2,35.7,31.3,79,81,75,0.477,27.4,30.0,25.4,2.609,0.8,83,14,2.7,-0.00007,-0.00010,44.5,43.9,12,0,0,34.5,6.05,0.00,0.00
15min,AgWx,evansfrm,411,11NOV2017:20:15:00,33.7,12.98,30.9,31.0,31.3,32.5,30.6,83,85,81,0.497,26.6,28.2,25.8,0,0.9,73,20,2.6,-0.00006,-0.00008,44.3,43.9,12,0,0,34.5,6.06,0.01,0.00
15min,AgWx,evansfrm,411,11NOV2017:20:30:00,32.9,13.02,32.5,32.0,31.2,32.4,30.4,85,86,84,0.514,27.3,28.6,26.3,1.732,0.1,65,4.2,1.7,-0.00010,-0.00016,44.0,44.1,12,0,0,34.6,6.06,0.00,0.00
15min,AgWx,evansfrm,411,11NOV2017:20:45:00,32.2,13,31.9,32.0,30.7,32.0,30.0,84,86,82,0.522,26.6,28.2,25.7,1.951,1.1,69,46,3.5,-0.00006,-0.00008,43.8,43.9,12,0,0,34.7,6.06,0.00,0.00
15min,AgWx,evansfrm,411,11NOV2017:21:00:00,31.9,12.99,31.2,30.9,32.1,33.1,30.9,83,85,80,0.492,27.5,28.4,26.4,2.017,2.3,39,90,4.6,-0.00002,-0.00002,43.7,43.9,12,0,0,34.6,6.06,0.00,0.00
15min,AgWx,evansfrm,411,11NOV2017:21:15:00,31.5,12.99,30.4,30.6,30.6,31.2,29.8,87,89,84,0.508,27.0,28.0,26.5,2.784,2.3,128,54,4.9,-0.00003,-0.00003,43.5,43.9,12,0,0,34.6,6.05,0.00,0.00
15min,AgWx,evansfrm,411,11NOV2017:21:30:00,31.1,12.95,31.8,32.2,31.2,32.4,30.0,88,90,86,0.536,28.1,29.5,26.8,0,1.9,161,52,5.0,-0.00004,-0.00005,43.2,43.9,12,0,0,34.9,6.05,0.00,0.00
15min,AgWx,evansfrm,411,11NOV2017:21:45:00,30.8,12.92,29.5,29.7,30.8,32.1,28.4,86,88,85,0.490,27.2,28.7,24.4,2.105,1.4,63,10,3.2,-0.00005,-0.00007,43.1,43.9,12,0,0,34.7,6.06,0.01,0.00
15min,AgWx,evansfrm,411,11NOV2017:22:00:00,30.2,12.96,29.4,29.5,29.6,30.2,29.3,89,89,88,0.493,26.6,27.2,26.2,0,0.1,38,9.6,2.1,-0.00009,-0.00015,42.9,43.7,12,0,0,34.8,6.06,0.00,0.00
15min,AgWx,evansfrm,411,11NOV2017:22:15:00,29.7,12.96,29.4,28.9,29.5,30.8,28.4,90,92,89,0.481,27.0,28.7,25.7,0,1.0,169,17,3.3,-0.00007,-0.00009,42.7,43.7,12,0,0,34.6,6.06,0.00,0.00
15min,AgWx,evansfrm,411,11NOV2017:22:30:00,29.3,12.95,30.3,30.3,29.1,30.5,28.0,91,94,90,0.525,26.9,28.6,25.3,0.482,1.1,114,45,2.1,-0.00007,-0.00009,42.6,43.5,12,0,0,34.8,6.06,0.00,0.00
15min,AgWx,evansfrm,411,11NOV2017:22:45:00,29.0,12.92,30.5,30.8,29.7,30.8,28.9,91,92,91,0.533,27.5,28.8,26.6,0.263,0.8,31,12,3.3,-0.00007,-0.00010,42.4,43.7,12,0,0,34.8,6.06,0.00,0.00
15min,AgWx,evansfrm,411,11NOV2017:23:00:00,28.8,12.94,29.6,29.7,30.0,30.6,29.6,91,91,90,0.506,27.7,28.5,27.2,0,0.7,41,12,2.3,-0.00008,-0.00011,42.2,43.2,12,0,0,34.5,6.06,0.00,0.00
15min,AgWx,evansfrm,411,11NOV2017:23:15:00,28.5,12.93,28.9,29.3,29.5,29.8,29.3,92,93,91,0.506,27.4,27.7,27.2,0,0.3,349,2.7,1.7,-0.00009,-0.00013,42.1,43.3,12,0,0,34.5,6.06,0.00,0.00
15min,AgWx,evansfrm,411,11NOV2017:23:30:00,28.2,12.92,28.2,28.2,28.3,29.3,27.7,93,94,92,0.490,26.5,27.4,25.7,3.793,2.6,160,19,4.7,-0.00004,-0.00005,41.9,43.3,12,0,0,34.9,6.06,0.00,0.00
15min,AgWx,evansfrm,411,11NOV2017:23:45:00,28.0,12.92,29.5,29.9,28.6,30.3,27.3,94,96,93,0.529,27.1,29.3,25.5,0,1.8,157,16,4.1,-0.00006,-0.00007,41.6,43.2,12,0,0,35.2,6.06,0.00,0.00
15min,AgWx,drainfrm,410,11NOV2017:00:00:00,31.3,12.44,32.5,33.2,34.0,35.1,32.0,95,96,93,0.618,32.6,34.0,30.5,3.771,2.2,222,39,4.5,-0.00007,-0.00008,41.3,42.8,14,0,100,36.3,11.57,0.00,0.00
15min,AgWx,drainfrm,410,11NOV2017:00:15:00,31.5,12.44,31.2,31.7,32.7,34.1,31.4,96,97,95,0.582,31.8,33.5,30.4,2.039,3.4,200,77,11.3,-0.00005,-0.00006,41.2,43.0,15,0,100,35.2,11.57,0.00,0.00
15min,AgWx,drainfrm,410,11NOV2017:00:30:00,31.4,12.43,31.1,31.6,32.0,32.5,31.4,98,98,97,0.587,31.3,32.0,30.7,1.096,1.9,156,46,4.4,-0.00007,-0.00010,41.0,42.8,14,0,100,34.1,11.57,0.00,0.00
15min,AgWx,drainfrm,410,11NOV2017:00:45:00,31.1,12.43,30.5,31.1,31.5,32.0,30.9,98,98,98,0.580,31.0,31.5,30.4,3.529,2.5,21,53,5.4,-0.00007,-0.00009,41.1,42.8,14,0,100,33.6,11.57,0.00,0.00
15min,AgWx,drainfrm,410,11NOV2017:01:00:00,30.5,12.43,28.8,29.3,30.4,31.0,29.3,99,99,98,0.540,30.1,30.6,29.0,1.995,1.8,92,66,4.4,-0.00007,-0.00010,41.1,43.0,15,0,100,32.2,11.57,0.00,0.00
15min,AgWx,drainfrm,410,11NOV2017:01:15:00,29.8,12.43,27.2,27.7,28.8,29.4,27.5,99,99,98,0.507,28.5,29.2,27.2,4.691,1.6,62,78,4.7,-0.00008,-0.00010,41.0,42.8,15,0,100,30.9,11.57,0.00,0.00
15min,AgWx,drainfrm,410,11NOV2017:01:30:00,29.0,12.42,27.8,28.4,28.2,29.0,27.3,100,100,99,0.525,28.1,28.9,27.2,4.231,2.6,321,39,4.5,-0.00006,-0.00008,41.0,42.8,15,0,100,30.6,11.57,0.00,0.00
15min,AgWx,drainfrm,410,11NOV2017:01:45:00,28.4,12.41,27.5,28.1,28.0,28.3,27.6,100,100,100,0.519,27.9,28.2,27.5,1.688,1.5,326,43,3.9,-0.00008,-0.00010,40.9,42.8,15,0,100,30.9,11.57,0.00,0.00
15min,AgWx,drainfrm,410,11NOV2017:02:00:00,28.2,12.42,27.8,28.3,28.0,28.4,27.5,100,100,100,0.524,27.9,28.3,27.4,1.469,2.7,57,36,5.0,-0.00006,-0.00008,40.8,42.8,14,0,100,31.0,11.57,0.00,0.00
15min,AgWx,drainfrm,410,11NOV2017:02:15:00,28.3,12.41,28.6,29.0,28.6,29.1,27.9,100,100,100,0.538,28.5,29.0,27.8,2.872,2.9,70,26,6.2,-0.00006,-0.00008,40.8,43.0,15,0,100,31.3,11.57,0.00,0.00
15min,AgWx,drainfrm,410,11NOV2017:02:30:00,28.4,12.41,28.1,28.6,28.8,29.0,28.5,100,100,100,0.529,28.7,28.9,28.4,0.921,2.1,18,58,3.2,-0.00007,-0.00009,40.7,42.6,15,0,100,32.0,11.57,0.00,0.00
15min,AgWx,drainfrm,410,11NOV2017:02:45:00,28.5,12.41,28.9,29.2,28.8,29.4,28.4,100,100,100,0.544,28.7,29.3,28.3,2.674,1.8,336,21,5.1,-0.00007,-0.00010,40.7,42.8,15,0,100,33.0,11.57,0.00,0.00
15min,AgWx,drainfrm,410,11NOV2017:03:00:00,28.8,12.4,30.0,30.5,29.6,30.5,29.2,100,100,100,0.573,29.6,30.4,29.1,5.678,3.2,310,12,6.3,-0.00006,-0.00007,40.7,42.4,14,0,100,33.5,11.57,0.00,0.00
15min,AgWx,drainfrm,410,11NOV2017:03:15:00,29.4,12.41,31.8,32.1,31.5,32.2,30.5,100,100,100,0.610,31.4,32.1,30.4,1.666,5.1,309,9.5,9.0,-0.00005,-0.00006,40.6,42.8,14,0,100,34.4,11.57,0.00,0.00
15min,AgWx,drainfrm,410,11NOV2017:03:30:00,30.1,12.4,31.3,31.8,32.3,32.6,31.7,100,100,100,0.604,32.2,32.5,31.6,11.05,5.3,20,38,14.8,-0.00005,-0.00006,40.6,42.8,14,0,100,35.3,11.57,0.00,0.00
15min,AgWx,drainfrm,410,11NOV2017:03:45:00,30.6,12.4,32.6,32.9,32.4,33.0,31.7,100,100,99,0.626,32.3,32.7,31.6,6.642,6.8,65,10,9.8,-0.00004,-0.00005,40.5,42.8,14,0,100,35.1,11.56,0.00,0.00
15min,AgWx,drainfrm,410,11NOV2017:04:00:00,31.1,12.4,33.0,33.6,33.4,33.6,32.9,98,99,97,0.633,32.9,33.2,32.6,2.653,3.5,60,17,6.8,-0.00006,-0.00007,40.5,42.6,15,0,100,36.3,11.57,0.00,0.00
15min,AgWx,drainfrm,410,11NOV2017:04:15:00,31.5,12.4,33.4,33.9,34.0,34.3,33.5,96,97,95,0.629,33.0,33.4,32.5,2.74,2.4,134,41,3.4,-0.00007,-0.00008,40.5,42.6,14,0,100,37.0,11.57,0.00,0.00
15min,AgWx,drainfrm,410,11NOV2017:04:30:00,31.7,12.39,34.6,35.2,34.6,35.2,34.0,94,96,92,0.649,32.9,33.6,32.3,4.012,3.5,181,17,4.9,-0.00004,-0.00005,40.5,42.4,14,0,100,37.1,11.56,0.00,0.00
15min,AgWx,drainfrm,410,11NOV2017:04:45:00,32.0,12.38,33.0,33.3,34.0,35.2,33.3,95,97,92,0.625,32.6,33.4,32.3,8.72,6.7,233,15,9.0,-0.00002,-0.00002,40.4,42.4,14,0,100,36.6,11.56,0.00,0.00
15min,AgWx,drainfrm,410,11NOV2017:05:00:00,32.3,12.39,34.2,34.7,34.1,34.8,33.3,96,97,94,0.637,33.2,33.6,32.5,6.292,7.8,228,13,11.2,-0.00002,-0.00002,40.3,42.4,15,0,100,36.6,11.57,0.00,0.00
15min,AgWx,drainfrm,410,11NOV2017:05:15:00,32.8,12.39,34.7,35.1,35.0,35.2,34.7,94,95,93,0.658,33.4,33.9,33.0,6.883,6.9,226,22,9.4,-0.00001,-0.00001,40.4,42.4,15,0,100,36.8,11.59,0.02,0.01
15min,AgWx,drainfrm,410,11NOV2017:05:30:00,33.4,12.39,36.7,37.1,36.2,37.1,35.0,94,96,92,0.698,34.7,35.4,33.8,3.749,5.3,202,20,8.8,-0.00003,-0.00003,40.3,42.1,15,0,100,38.0,11.60,0.01,0.01
15min,AgWx,drainfrm,410,11NOV2017:05:45:00,34.1,12.37,36.6,37.1,37.2,37.6,37.0,92,94,91,0.688,35.2,35.7,34.9,2.631,5.6,116,21,8.6,-0.00002,-0.00001,40.3,42.4,15,0,100,38.5,11.60,0.00,0.01
15min,AgWx,drainfrm,410,11NOV2017:06:00:00,34.5,12.39,36.3,37.0,37.4,37.9,36.9,92,93,90,0.688,35.2,35.4,34.8,3.836,4.4,116,39,7.2,-0.00003,-0.00003,40.3,42.4,15,0,100,38.9,11.60,0.00,0.00
15min,AgWx,drainfrm,410,11NOV2017:06:15:00,34.7,12.39,36.4,36.9,37.2,37.7,36.8,92,93,90,0.674,35.0,35.3,34.4,4.582,4.1,56,14,5.5,-0.00003,-0.00003,40.3,42.4,14,0,100,38.4,11.60,0.00,0.00
15min,AgWx,drainfrm,410,11NOV2017:06:30:00,34.4,12.38,37.3,38.2,37.0,38.2,36.2,91,93,90,0.700,34.8,35.6,34.0,0,2.7,82,24,4.3,-0.00005,-0.00006,40.3,42.4,14,0,100,37.9,11.60,0.00,0.00
15min,AgWx,drainfrm,410,11NOV2017:06:45:00,34.1,12.38,33.9,34.2,35.3,38.3,34.2,93,95,88,0.635,33.4,35.5,33.0,3.946,4.2,242,8.6,6.5,-0.00003,-0.00003,40.2,42.4,14,0,100,36.6,11.60,0.00,0.00
15min,AgWx,drainfrm,410,11NOV2017:07:00:00,33.4,12.38,33.3,33.9,33.9,34.2,33.7,96,96,95,0.632,32.9,33.1,32.6,2.696,3.1,242,3.8,4.5,-0.00006,-0.00007,40.2,42.4,14,0,100,35.0,11.60,0.00,0.00
15min,AgWx,drainfrm,410,11NOV2017:07:15:00,32.8,12.38,32.7,33.3,33.4,33.9,32.8,96,96,96,0.619,32.3,32.9,31.7,2.959,1.7,256,63,3.1,-0.00007,-0.00009,40.3,42.4,15,4,100,35.4,11.60,0.00,0.00
15min,AgWx,drainfrm,410,11NOV2017:07:30:00,32.8,12.38,34.4,34.9,34.5,35.1,33.3,96,97,95,0.655,33.5,34.4,32.3,3.42,4.4,212,8.7,6.1,-0.00026,-0.00026,40.3,42.4,15,17,100,37.2,11.60,0.00,0.00
15min,AgWx,drainfrm,410,11NOV2017:07:45:00,32.9,12.39,33.9,34.4,34.7,35.0,34.4,95,96,95,0.639,33.6,33.9,33.1,1.074,1.5,257,30,3.2,-0.00020,-0.00021,40.2,42.4,14,23,100,37.8,11.60,0.00,0.00